Weather History for Scottsboro, AL

Change the Weather History Date:

Sunday, January 26, 2014

  Actual Average (KHSV) Record (KHSV)
Temperature  
Mean Temperature 37 °F 42 °F  
Max Temperature 55 °F 52 °F 75 °F (1950)
Min Temperature 19 °F 32 °F -4 °F (1940)
Degree Days  
Heating Degree Days 28 23  
Month to date heating degree days 619  
Since 1 July heating degree days 1800  
Cooling Degree Days 0 0  
Month to date cooling degree days 0  
Year to date cooling degree days 0  
Moisture  
Dew Point 24 °F    
Average Humidity 59    
Maximum Humidity 93    
Minimum Humidity 33    
Precipitation  
Precipitation 0.00 in 0.15 in 1.50 in (1994)
Month to date precipitation 4.11  
Year to date precipitation 4.11  
Snow  
Snow 0.00 in - - ()
Month to date snowfall  
Since 1 July snowfall  
Snow Depth -    
Sea Level Pressure  
Sea Level Pressure 29.92 in    
Wind  
Wind Speed 4 mph (SW)    
Max Wind Speed 16 mph    
Max Gust Speed 25 mph    
Visibility 10 miles    
Events      
T = Trace of Precipitation, MM = Missing Value Source: NWS Daily Summary

Daily Weather History Graph

Daily Weather History Graph

Search for Another Location

Airport:

Trip Planner

Search our weather history database for the weather conditions in past years. The results will help you decide how hot, cold, wet, or windy it might be!

Date:

Astronomy

Jan. 26, 2014 Rise Set
Actual Time 6:46 AM CST 5:07 PM CST
Civil Twilight 6:19 AM CST 5:34 PM CST
Nautical Twilight 5:48 AM CST 6:04 PM CST
Astronomical Twilight 5:19 AM CST 6:34 PM CST
Moon 2:22 AM CST (1/26) 12:57 PM CST (1/26)
Length of Visible Light 11h 14m
Length of Day
10h 21m
Waning Crescent, 23% of the Moon is Illuminated
Jan 26
Waning Crescent
Jan 30
New
Feb 6
First Quarter
Feb 14
Full
Feb 22
Last Quarter

Hourly Weather History & Observations

Time (CST) Temp. Windchill Dew Point Humidity Pressure Visibility Wind Dir Wind Speed Gust Speed Precip Events Conditions
12:15 AM 28.4 °F 24.6 °F 21.2 °F 74% 29.98 in 10.0 mi SSW 3.5 mph - N/A   Clear
12:35 AM 26.6 °F 22.6 °F 21.2 °F 80% 29.98 in 10.0 mi SW 3.5 mph - N/A   Clear
12:55 AM 24.8 °F - 19.4 °F 80% 29.99 in 10.0 mi Calm Calm - N/A   Clear
1:15 AM 24.8 °F - 19.4 °F 80% 29.99 in 10.0 mi Calm Calm - N/A   Clear
1:35 AM 24.8 °F - 19.4 °F 80% 29.98 in 10.0 mi Calm Calm - N/A   Clear
1:55 AM 23.0 °F 17.0 °F 19.4 °F 86% 29.98 in 10.0 mi NNE 4.6 mph - N/A   Clear
2:15 AM 24.8 °F - 19.4 °F 80% 29.99 in 10.0 mi Calm Calm - N/A   Clear
2:35 AM 23.0 °F - 19.4 °F 86% 29.99 in 10.0 mi Calm Calm - N/A   Clear
2:55 AM 23.0 °F - 19.4 °F 86% 29.99 in 10.0 mi Calm Calm - N/A   Clear
3:15 AM 23.0 °F - 19.4 °F 86% 29.98 in 10.0 mi Calm Calm - N/A   Clear
3:35 AM 23.0 °F - 19.4 °F 86% 29.97 in 10.0 mi Calm Calm - N/A   Clear
3:55 AM 23.0 °F - 19.4 °F 86% 29.97 in 10.0 mi Calm Calm - N/A   Clear
4:15 AM 23.0 °F - 19.4 °F 86% 29.97 in 10.0 mi Calm Calm - N/A   Clear
4:35 AM 23.0 °F - 17.6 °F 80% 29.98 in 10.0 mi Calm Calm - N/A   Clear
4:55 AM 21.2 °F - 19.4 °F 93% 29.98 in 10.0 mi Calm Calm - N/A   Clear
5:15 AM 21.2 °F - 17.6 °F 86% 29.98 in 10.0 mi Calm Calm - N/A   Clear
5:35 AM 21.2 °F - 17.6 °F 86% 29.97 in 10.0 mi Calm Calm - N/A   Clear
5:55 AM 21.2 °F - 17.6 °F 86% 29.97 in 10.0 mi Calm Calm - N/A   Clear
6:15 AM 21.2 °F - 17.6 °F 86% 29.98 in 10.0 mi Calm Calm - N/A   Clear
6:35 AM 21.2 °F - 17.6 °F 86% 29.98 in 10.0 mi Calm Calm - N/A   Clear
6:55 AM 19.4 °F - 17.6 °F 93% 29.99 in 10.0 mi Calm Calm - N/A   Clear
7:15 AM 21.2 °F - 17.6 °F 86% 29.99 in 10.0 mi Calm Calm - N/A   Clear
7:35 AM 23.0 °F - 19.4 °F 86% 29.99 in 10.0 mi Calm Calm - N/A   Clear
7:55 AM 24.8 °F - 21.2 °F 86% 29.99 in 10.0 mi Calm Calm - N/A   Clear
8:15 AM 26.6 °F - 23.0 °F 86% 30.00 in 10.0 mi Calm Calm - N/A   Clear
8:35 AM 30.2 °F - 23.0 °F 75% 29.99 in 10.0 mi Calm Calm - N/A   Clear
8:55 AM 32.0 °F - 23.0 °F 69% 29.99 in 10.0 mi Calm Calm - N/A   Clear
9:15 AM 35.6 °F 32.8 °F 24.8 °F 65% 29.98 in 10.0 mi WSW 3.5 mph - N/A   Clear
9:35 AM 37.4 °F 32.1 °F 24.8 °F 60% 29.99 in 10.0 mi WSW 6.9 mph - N/A   Clear
9:55 AM 39.2 °F 33.6 °F 24.8 °F 56% 29.98 in 10.0 mi SW 8.1 mph - N/A   Clear
10:15 AM 42.8 °F 37.5 °F 24.8 °F 49% 29.97 in 10.0 mi SW 9.2 mph 16.1 mph N/A   Clear
10:35 AM 44.6 °F 38.8 °F 26.6 °F 49% 29.97 in 10.0 mi SW 11.5 mph 17.3 mph N/A   Clear
10:55 AM 46.4 °F 40.4 °F 26.6 °F 46% 29.96 in 10.0 mi SW 13.8 mph 19.6 mph N/A   Clear
11:15 AM 48.2 °F - 26.6 °F 43% 29.95 in 10.0 mi SW 15.0 mph 19.6 mph N/A   Clear
11:35 AM 50.0 °F - 26.6 °F 40% 29.94 in 10.0 mi SW 15.0 mph 24.2 mph N/A   Clear
11:55 AM 51.8 °F - 26.6 °F 38% 29.93 in 10.0 mi SW 12.7 mph 18.4 mph N/A   Clear
12:15 PM 53.6 °F - 26.6 °F 35% 29.92 in 10.0 mi SW 15.0 mph 24.2 mph N/A   Clear
12:35 PM 53.6 °F - 26.6 °F 35% 29.90 in 10.0 mi SSW 13.8 mph 23.0 mph N/A   Clear
12:55 PM 55.4 °F - 26.6 °F 33% 29.89 in 10.0 mi SW 12.7 mph 23.0 mph N/A   Clear
1:15 PM 55.4 °F - 26.6 °F 33% 29.88 in 10.0 mi SSW 13.8 mph 25.3 mph N/A   Clear
1:35 PM 55.4 °F - 26.6 °F 33% 29.88 in 10.0 mi SW 10.4 mph 20.7 mph N/A   Clear
1:55 PM 55.4 °F - 26.6 °F 33% 29.87 in 10.0 mi SW 11.5 mph 23.0 mph N/A   Clear
2:15 PM 55.4 °F - 26.6 °F 33% 29.86 in 10.0 mi SSW 9.2 mph 20.7 mph N/A   Clear
2:35 PM 55.4 °F - 26.6 °F 33% 29.86 in 10.0 mi SW 11.5 mph 18.4 mph N/A   Clear
2:55 PM 55.4 °F - 26.6 °F 33% 29.86 in 10.0 mi SSW 12.7 mph 23.0 mph N/A   Clear
3:15 PM 55.4 °F - 26.6 °F 33% 29.86 in 10.0 mi SW 15.0 mph 21.9 mph N/A   Clear
3:35 PM 55.4 °F - 26.6 °F 33% 29.85 in 10.0 mi SW 12.7 mph 20.7 mph N/A   Clear
3:55 PM 53.6 °F - 26.6 °F 35% 29.85 in 10.0 mi SW 16.1 mph 23.0 mph N/A   Clear
4:15 PM 53.6 °F - 28.4 °F 38% 29.85 in 10.0 mi SW 10.4 mph 18.4 mph N/A   Clear
4:35 PM 53.6 °F - 28.4 °F 38% 29.85 in 10.0 mi SW 11.5 mph 16.1 mph N/A   Clear
4:55 PM 53.6 °F - 28.4 °F 38% 29.85 in 10.0 mi SW 9.2 mph - N/A   Clear
5:15 PM 51.8 °F - 28.4 °F 41% 29.85 in 10.0 mi SW 5.8 mph - N/A   Clear
5:35 PM 50.0 °F - 28.4 °F 43% 29.86 in 10.0 mi SW 4.6 mph - N/A   Clear
5:55 PM 50.0 °F - 28.4 °F 43% 29.86 in 10.0 mi Calm Calm - N/A   Clear
6:15 PM 46.4 °F - 28.4 °F 50% 29.87 in 10.0 mi Calm Calm - N/A   Clear
6:35 PM 44.6 °F - 28.4 °F 53% 29.87 in 10.0 mi Calm Calm - N/A   Clear
6:55 PM 42.8 °F - 28.4 °F 57% 29.87 in 10.0 mi Calm Calm - N/A   Clear
7:15 PM 41.0 °F 39.0 °F 28.4 °F 61% 29.87 in 10.0 mi SW 3.5 mph - N/A   Clear
7:35 PM 42.8 °F 39.3 °F 28.4 °F 57% 29.87 in 10.0 mi SW 5.8 mph - N/A   Mostly Cloudy
7:55 PM 46.4 °F 42.4 °F 28.4 °F 50% 29.88 in 10.0 mi SW 8.1 mph - N/A   Overcast
8:15 PM 50.0 °F - 28.4 °F 43% 29.89 in 10.0 mi SW 8.1 mph - N/A   Overcast
8:35 PM 50.0 °F - 28.4 °F 43% 29.88 in 10.0 mi SW 8.1 mph - N/A   Overcast
8:55 PM 50.0 °F - 28.4 °F 43% 29.88 in 10.0 mi SW 5.8 mph - N/A   Mostly Cloudy
9:15 PM 48.2 °F - 28.4 °F 46% 29.87 in 10.0 mi SW 4.6 mph - N/A   Mostly Cloudy
9:35 PM 46.4 °F 44.3 °F 28.4 °F 50% 29.88 in 10.0 mi WSW 4.6 mph - N/A   Scattered Clouds
9:55 PM 48.2 °F - 28.4 °F 46% 29.87 in 10.0 mi SW 6.9 mph - N/A   Partly Cloudy
10:15 PM 48.2 °F - 28.4 °F 46% 29.87 in 10.0 mi SSW 6.9 mph - N/A   Scattered Clouds
10:35 PM 48.2 °F - 28.4 °F 46% 29.86 in 10.0 mi SSW 6.9 mph - N/A   Scattered Clouds
10:55 PM 48.2 °F - 28.4 °F 46% 29.86 in 10.0 mi SW 5.8 mph - N/A   Scattered Clouds
11:15 PM 48.2 °F - 28.4 °F 46% 29.85 in 10.0 mi WSW 4.6 mph - N/A   Mostly Cloudy
11:35 PM 48.2 °F - 28.4 °F 46% 29.85 in 10.0 mi WSW 4.6 mph - N/A   Mostly Cloudy
11:55 PM 46.4 °F 44.3 °F 30.2 °F 53% 29.85 in 10.0 mi SW 4.6 mph - N/A   Partly Cloudy